Stündliche Wetter Kyzyl Yul

Heute, 14 Mai, Freitag

Zeit Temperatur Niederschläge Wind Luftdruck Luftfeuchtigkeit
00:00 +19°C° 0 mm 1 m/S 754 mmHg 51%
01:00 +18°C° 0 mm 1 m/S 754 mmHg 51%
02:00 +18°C° 0 mm 1 m/S 754 mmHg 52%
03:00 +18°C° 0 mm 1 m/S 754 mmHg 53%
04:00 +16°C° 0 mm 1 m/S 754 mmHg 53%
05:00 +19°C° 0 mm 1 m/S 754 mmHg 53%
06:00 +20°C° 0 mm 1 m/S 754 mmHg 52%
07:00 +21°C° 0 mm 1 m/S 754 mmHg 51%
08:00 +23°C° 0 mm 2 m/S 754 mmHg 46%
09:00 +25°C° 0 mm 3 m/S 754 mmHg 41%
10:00 +27°C° 0 mm 3 m/S 754 mmHg 36%
11:00 +27°C° 0 mm 4 m/S 754 mmHg 34%
12:00 +28°C° 0 mm 4 m/S 754 mmHg 33%
13:00 +29°C° 0 mm 4 m/S 754 mmHg 31%
14:00 +29°C° 0 mm 4 m/S 754 mmHg 31%
15:00 +29°C° 0 mm 4 m/S 754 mmHg 31%
16:00 +29°C° 0 mm 3 m/S 753 mmHg 31%
17:00 +28°C° 0 mm 3 m/S 753 mmHg 37%
18:00 +27°C° 0 mm 2 m/S 753 mmHg 43%
19:00 +25°C° 0 mm 2 m/S 753 mmHg 49%
20:00 +24°C° 0 mm 2 m/S 753 mmHg 50%
21:00 +23°C° 0 mm 2 m/S 753 mmHg 51%
22:00 +20°C° 0 mm 2 m/S 753 mmHg 52%
23:00 +20°C° 0 mm 2 m/S 753 mmHg 52%

Morgen, 15 Mai, Samstag

Zeit Temperatur Niederschläge Wind Luftdruck Luftfeuchtigkeit
00:00 +19°C° 0 mm 2 m/S 753 mmHg 52%
01:00 +19°C° 0 mm 2 m/S 752 mmHg 53%
02:00 +18°C° 0 mm 2 m/S 752 mmHg 53%
03:00 +18°C° 0 mm 2 m/S 753 mmHg 54%
04:00 +18°C° 0 mm 2 m/S 753 mmHg 55%
05:00 +19°C° 0 mm 2 m/S 753 mmHg 54%
06:00 +20°C° 0 mm 2 m/S 753 mmHg 53%
07:00 +21°C° 0 mm 2 m/S 753 mmHg 52%
08:00 +24°C° 0 mm 2 m/S 753 mmHg 47%
09:00 +26°C° 0 mm 3 m/S 753 mmHg 42%
10:00 +28°C° 0 mm 3 m/S 753 mmHg 37%
11:00 +29°C° 0 mm 3 m/S 753 mmHg 34%
12:00 +30°C° 0 mm 4 m/S 753 mmHg 31%
13:00 +30°C° 0 mm 4 m/S 752 mmHg 29%
14:00 +30°C° 0 mm 3 m/S 752 mmHg 29%
15:00 +31°C° 0 mm 3 m/S 752 mmHg 29%
16:00 +31°C° 0 mm 3 m/S 752 mmHg 29%
17:00 +29°C° 0 mm 3 m/S 752 mmHg 35%
18:00 +28°C° 0 mm 2 m/S 751 mmHg 40%
19:00 +27°C° 0 mm 1 m/S 751 mmHg 46%
20:00 +25°C° 0 mm 1 m/S 751 mmHg 47%
21:00 +24°C° 0 mm 1 m/S 751 mmHg 47%
22:00 +22°C° 0 mm 1 m/S 751 mmHg 48%
23:00 +22°C° 0 mm 1 m/S 751 mmHg 49%

übermorgen, 16 Mai, Sonntag

Zeit Temperatur Niederschläge Wind Luftdruck Luftfeuchtigkeit
00:00 +21°C° 0 mm 1 m/S 751 mmHg 50%
01:00 +20°C° 0 mm 2 m/S 751 mmHg 50%
02:00 +20°C° 0 mm 1 m/S 751 mmHg 51%
03:00 +20°C° 0 mm 1 m/S 751 mmHg 51%
04:00 +20°C° 0 mm 1 m/S 751 mmHg 51%
05:00 +20°C° 0 mm 2 m/S 751 mmHg 51%
06:00 +21°C° 0 mm 2 m/S 751 mmHg 51%
07:00 +23°C° 0 mm 2 m/S 751 mmHg 51%
08:00 +25°C° 0 mm 2 m/S 751 mmHg 47%
09:00 +27°C° 0 mm 3 m/S 751 mmHg 43%
10:00 +28°C° 0 mm 4 m/S 751 mmHg 38%
11:00 +29°C° 0 mm 4 m/S 751 mmHg 36%
12:00 +30°C° 0 mm 4 m/S 750 mmHg 34%
13:00 +32°C° 0 mm 4 m/S 750 mmHg 32%
14:00 +32°C° 0 mm 4 m/S 750 mmHg 31%
15:00 +32°C° 0 mm 4 m/S 750 mmHg 30%
16:00 +32°C° 0 mm 4 m/S 750 mmHg 30%
17:00 +30°C° 0 mm 3 m/S 749 mmHg 35%
18:00 +28°C° 0 mm 3 m/S 749 mmHg 40%
19:00 +27°C° 0 mm 2 m/S 749 mmHg 45%
20:00 +25°C° 0 mm 2 m/S 749 mmHg 47%
21:00 +24°C° 0 mm 2 m/S 749 mmHg 49%
22:00 +22°C° 0 mm 1 m/S 749 mmHg 52%
23:00 +22°C° 0 mm 1 m/S 749 mmHg 52%

17 Mai, Montag

Zeit Temperatur Niederschläge Wind Luftdruck Luftfeuchtigkeit
00:00 +20°C° 0 mm 2 m/S 749 mmHg 53%
01:00 +20°C° 0 mm 2 m/S 749 mmHg 53%
02:00 +19°C° 0 mm 2 m/S 749 mmHg 55%
03:00 +19°C° 0 mm 2 m/S 749 mmHg 56%
04:00 +19°C° 0 mm 2 m/S 749 mmHg 58%
05:00 +20°C° 0 mm 2 m/S 749 mmHg 58%
06:00 +21°C° 0 mm 2 m/S 749 mmHg 59%
07:00 +23°C° 0 mm 2 m/S 750 mmHg 59%
08:00 +24°C° 0 mm 3 m/S 750 mmHg 54%
09:00 +26°C° 0 mm 3 m/S 750 mmHg 48%
10:00 +28°C° 0 mm 3 m/S 750 mmHg 43%
11:00 +29°C° 0 mm 3 m/S 750 mmHg 40%
12:00 +30°C° 0 mm 3 m/S 750 mmHg 37%
13:00 +31°C° 0 mm 2 m/S 749 mmHg 34%
14:00 +31°C° 0 mm 3 m/S 749 mmHg 33%
15:00 +31°C° 0 mm 3 m/S 749 mmHg 31%
16:00 +31°C° 0 mm 3 m/S 749 mmHg 30%
17:00 +29°C° 0 mm 3 m/S 749 mmHg 37%
18:00 +28°C° 0 mm 3 m/S 749 mmHg 43%
19:00 +26°C° 0 mm 3 m/S 748 mmHg 49%
20:00 +25°C° 0 mm 3 m/S 748 mmHg 51%
21:00 +22°C° 0 mm 3 m/S 749 mmHg 53%
22:00 +21°C° 0 mm 2 m/S 749 mmHg 55%
23:00 +20°C° 0 mm 2 m/S 749 mmHg 55%

18 Mai, Dienstag

Zeit Temperatur Niederschläge Wind Luftdruck Luftfeuchtigkeit
00:00 +21°C° 0 mm 1 m/S 749 mmHg 56%
01:00 +21°C° 0 mm 1 m/S 748 mmHg 57%
02:00 +20°C° 0 mm 1 m/S 748 mmHg 57%
03:00 +20°C° 0 mm 1 m/S 748 mmHg 57%
04:00 +20°C° 0 mm 1 m/S 748 mmHg 58%
05:00 +21°C° 0.1 mm 1 m/S 749 mmHg 57%
06:00 +20°C° 0.1 mm 0 m/S 749 mmHg 56%
07:00 +21°C° 0.1 mm 0 m/S 749 mmHg 54%
08:00 +23°C° 0 mm 0 m/S 749 mmHg 50%
09:00 +25°C° 0 mm 0 m/S 749 mmHg 45%
10:00 +26°C° 0 mm 0 m/S 749 mmHg 40%
11:00 +27°C° 0 mm 0 m/S 748 mmHg 37%
12:00 +30°C° 0 mm 1 m/S 748 mmHg 34%
13:00 +31°C° 0 mm 1 m/S 748 mmHg 31%
14:00 +30°C° 0.1 mm 2 m/S 748 mmHg 35%
15:00 +29°C° 0.1 mm 2 m/S 748 mmHg 39%
16:00 +28°C° 0.1 mm 3 m/S 748 mmHg 43%
17:00 +27°C° 0.4 mm 2 m/S 748 mmHg 48%
18:00 +25°C° 0.4 mm 2 m/S 748 mmHg 53%
19:00 +23°C° 0.4 mm 1 m/S 747 mmHg 58%
20:00 +23°C° 0 mm 1 m/S 748 mmHg 58%
21:00 +23°C° 0 mm 1 m/S 748 mmHg 57%
22:00 +22°C° 0 mm 1 m/S 748 mmHg 57%
23:00 +22°C° 0 mm 1 m/S 748 mmHg 59%

19 Mai, Mittwoch

Zeit Temperatur Niederschläge Wind Luftdruck Luftfeuchtigkeit
00:00 +21°C° 0 mm 1 m/S 748 mmHg 62%
01:00 +20°C° 0 mm 1 m/S 748 mmHg 64%
02:00 +20°C° 0 mm 1 m/S 748 mmHg 64%
03:00 +20°C° 0 mm 1 m/S 748 mmHg 65%
04:00 +17°C° 0 mm 0 m/S 748 mmHg 65%
05:00 +18°C° 0 mm 0 m/S 748 mmHg 64%
06:00 +19°C° 0 mm 0 m/S 748 mmHg 64%
07:00 +20°C° 0 mm 0 m/S 749 mmHg 63%
08:00 +23°C° 0 mm 1 m/S 749 mmHg 59%
09:00 +25°C° 0 mm 1 m/S 749 mmHg 55%
10:00 +26°C° 0 mm 2 m/S 749 mmHg 51%
11:00 +27°C° 0 mm 2 m/S 749 mmHg 50%
12:00 +28°C° 0 mm 2 m/S 749 mmHg 48%
13:00 +28°C° 0 mm 3 m/S 749 mmHg 46%
14:00 +28°C° 0 mm 3 m/S 749 mmHg 45%
15:00 +29°C° 0 mm 3 m/S 749 mmHg 44%
16:00 +29°C° 0 mm 3 m/S 749 mmHg 44%
17:00 +27°C° 0 mm 3 m/S 750 mmHg 49%
18:00 +26°C° 0 mm 3 m/S 750 mmHg 54%
19:00 +25°C° 0 mm 3 m/S 750 mmHg 59%
20:00 +23°C° 0 mm 2 m/S 750 mmHg 62%
21:00 +21°C° 0 mm 2 m/S 751 mmHg 65%
22:00 +19°C° 0 mm 2 m/S 751 mmHg 68%
23:00 +18°C° 0 mm 2 m/S 751 mmHg 72%
Mehr zeigen

Wir brauchen deine Erlaubnis

Meteoprog und unser Service Anbieter werden persönliche Daten aufbewahren, so wie Cookies, Geräte Bezeichnung oder ähnliche Technologien von deinem Gerät und Prozess, so wie Persönliche Daten Inhalte und Werbungen, genauso wie social Media und den Verkehr zu analysieren.

  • Aufbewahrung und/oder Zugang zu deiner Geräte Informationen.

    Cookies, Geräte Bezeichnung oder andere Informationen, können aufbewahrt oder Zugang zu deinem Gerät erhalten, für den Grund, der oben angegeben wird.

  • Personalisierte Werbung und Inhalte, Messungen, Einblick in das Publikum und Produkt Entwicklung.

    Werbungen und Inhalte können personalisiert werden, basierend auf ein Profil. Mehr Daten können besser personalisierte Werbungen und Inhalte hinzufügen. Werbung und Inhalte können gezeigt und gemessen werden. Einblicke über das Publikum, welche die Werbung gesehen haben und den Inhalt, können abgeleitet werden. So wie Daten können genutzt werden, um es zu verbessern oder die Benutzer Erfahrung zu verbessern das System und die Software.

Wenn du “Ich stimme zu” klickst, erlaubst du uns, die Cookies zu benutzen die Geräte Bezeichnung, den Web oder ähnliche Technologien zu benutzen. Deine Settings, können in deinem Gerät bei deinem Browser geändert werden.

Für den bestimmten Zweck, berechtigten Interessen beruhen darauf, mehr als auf den Inhalt. Du kannst mehr darüber in unseren Privaten und Cookie Politik lesen.